Location: Riverside Cemetery
(38.3047°N, 99.7773°W)
Time: 07:19:36
(UTC+00:00)

SL-4 R/B - Pass Details

Date: 19 September 2020
Orbit: 428 x 666 km, 51.6° (Epoch: 22 October)

Event Time Altitude Azimuth Distance (km) Brightness Sun altitude
Exits shadow 10:55:01 26° 206° (SSW) 1,230 3.4 -18.2°
Maximum altitude 10:57:27 58° 136° (SE) 735 2.7 -17.7°
Drops below altitude 10° 11:02:07 10° 58° (ENE) 2,060 6.1 -16.8°
Sets 11:04:32 0° 54° (NE) 2,991 7.1 -16.4°
